Weather History for Idabel, OK

Change the Weather History Date:

Tuesday, November 5, 2013

  Actual Average (KDEQ) Record (KDEQ)
Temperature  
Mean Temperature 58 °F 57 °F  
Max Temperature 64 °F 70 °F 84 °F (1987)
Min Temperature 53 °F 44 °F 21 °F (1991)
Degree Days  
Heating Degree Days 6 9  
Month to date heating degree days 41  
Since 1 July heating degree days 174  
Cooling Degree Days 0 1  
Month to date cooling degree days 5  
Year to date cooling degree days 1939  
Growing Degree Days 8 (Base 50)    
Moisture  
Dew Point 58 °F    
Average Humidity 94    
Maximum Humidity 100    
Minimum Humidity 83    
Precipitation  
Precipitation 1.40 in 0.17 in 2.64 in (1994)
Month to date precipitation 0.84  
Year to date precipitation 40.56  
Snow  
Snow 0.00 in - - ()
Month to date snowfall  
Since 1 July snowfall  
Since 1 September snowfall  
Snow Depth -    
Sea Level Pressure  
Sea Level Pressure 30.07 in    
Wind  
Wind Speed 8 mph (ESE)    
Max Wind Speed 14 mph    
Max Gust Speed 18 mph    
Visibility 4 miles    
Events      
T = Trace of Precipitation, MM = Missing Value Source: NWS Daily Summary

Daily Weather History Graph

Daily Weather History Graph

Search for Another Location

Airport:

Trip Planner

Search our weather history database for the weather conditions in past years. The results will help you decide how hot, cold, wet, or windy it might be!

Date:

Astronomy

Nov. 05, 2013 Rise Set
Actual Time 6:42 AM CST 5:22 PM CST
Civil Twilight 6:16 AM CST 5:48 PM CST
Nautical Twilight 5:46 AM CST 6:18 PM CST
Astronomical Twilight 5:17 AM CST 6:47 PM CST
Moon 8:54 AM CST (11/5) 7:29 PM CST (11/5)
Length of Visible Light 11h 32m
Length of Day
10h 40m
Waxing Crescent, 7% of the Moon is Illuminated
Nov 5
Waxing Crescent
Nov 9
First Quarter
Nov 17
Full
Nov 25
Last Quarter
Dec 2
New

Hourly Weather History & Observations

Time (CST) Temp. Dew Point Humidity Pressure Visibility Wind Dir Wind Speed Gust Speed Precip Events Conditions
12:15 AM 53.6 °F 53.6 °F 100% 30.14 in 5.0 mi East 6.9 mph - N/A   Mostly Cloudy
12:35 AM 53.6 °F 53.6 °F 100% 30.14 in 5.0 mi East 5.8 mph - N/A   Mostly Cloudy
12:55 AM 53.6 °F 53.6 °F 100% 30.15 in 3.0 mi ESE 6.9 mph - N/A   Mostly Cloudy
1:15 AM 53.6 °F 53.6 °F 100% 30.15 in 3.0 mi ESE 5.8 mph - N/A   Overcast
1:35 AM 53.6 °F 53.6 °F 100% 30.15 in 2.5 mi East 5.8 mph - 0.01 in   Overcast
1:55 AM 53.6 °F 53.6 °F 100% 30.14 in 1.8 mi East 6.9 mph - 0.04 in   Overcast
2:15 AM 53.6 °F 53.6 °F 100% 30.14 in 1.8 mi East 6.9 mph - 0.01 in   Overcast
2:35 AM 53.6 °F 53.6 °F 100% 30.14 in 1.8 mi East 5.8 mph - 0.04 in   Overcast
2:55 AM 55.4 °F 53.6 °F 94% 30.13 in 1.5 mi East 6.9 mph - 0.08 in   Overcast
3:15 AM 55.4 °F 53.6 °F 94% 30.12 in 1.5 mi East 9.2 mph - 0.03 in   Overcast
3:35 AM 55.4 °F 53.6 °F 94% 30.11 in 4.0 mi East 10.4 mph - 0.03 in   Overcast
3:55 AM 55.4 °F 53.6 °F 94% 30.10 in 3.0 mi East 11.5 mph - 0.03 in   Overcast
4:15 AM 55.4 °F 53.6 °F 94% 30.10 in 3.0 mi East 10.4 mph - N/A   Overcast
4:35 AM 55.4 °F 53.6 °F 94% 30.11 in 4.0 mi East 9.2 mph - N/A   Overcast
4:55 AM 55.4 °F 53.6 °F 94% 30.11 in 4.0 mi East 9.2 mph - N/A   Overcast
5:15 AM 55.4 °F 53.6 °F 94% 30.10 in 5.0 mi East 9.2 mph - N/A   Overcast
5:35 AM 55.4 °F 53.6 °F 94% 30.10 in 5.0 mi East 9.2 mph - N/A   Mostly Cloudy
5:55 AM 55.4 °F 53.6 °F 94% 30.09 in 5.0 mi East 9.2 mph - N/A   Mostly Cloudy
6:15 AM 55.4 °F 53.6 °F 94% 30.09 in 5.0 mi East 10.4 mph 16.1 mph N/A   Overcast
6:35 AM 55.4 °F 53.6 °F 94% 30.10 in 5.0 mi East 10.4 mph - N/A   Overcast
6:55 AM 55.4 °F 53.6 °F 94% 30.10 in 7.0 mi East 11.5 mph - N/A   Overcast
7:15 AM 55.4 °F 53.6 °F 94% 30.10 in 5.0 mi East 11.5 mph - N/A   Mostly Cloudy
7:35 AM 55.4 °F 55.4 °F 100% 30.10 in 5.0 mi East 9.2 mph - N/A   Mostly Cloudy
7:55 AM 55.4 °F 55.4 °F 100% 30.10 in 7.0 mi ESE 13.8 mph 18.4 mph N/A   Overcast
8:15 AM 55.4 °F 55.4 °F 100% 30.11 in 7.0 mi ESE 9.2 mph - N/A   Overcast
8:35 AM 57.2 °F 55.4 °F 94% 30.12 in 4.0 mi SE 9.2 mph - N/A   Overcast
8:55 AM 57.2 °F 55.4 °F 94% 30.13 in 3.0 mi SE 10.4 mph - N/A   Overcast
9:15 AM 57.2 °F 55.4 °F 94% 30.11 in 2.0 mi ESE 10.4 mph - N/A   Overcast
9:35 AM 59.0 °F 57.2 °F 94% 30.12 in 7.0 mi ESE 10.4 mph - N/A   Mostly Cloudy
9:55 AM 59.0 °F 59.0 °F 100% 30.11 in 10.0 mi SE 10.4 mph - N/A   Overcast
10:15 AM 60.8 °F 59.0 °F 94% 30.11 in 10.0 mi ESE 12.7 mph 17.3 mph N/A   Overcast
10:35 AM 60.8 °F 59.0 °F 94% 30.11 in 10.0 mi SE 9.2 mph 16.1 mph N/A   Overcast
10:55 AM 60.8 °F 59.0 °F 94% 30.10 in 10.0 mi ESE 9.2 mph - N/A   Overcast
11:15 AM 60.8 °F 59.0 °F 94% 30.09 in 10.0 mi SE 10.4 mph - N/A   Overcast
11:35 AM 62.6 °F 59.0 °F 88% 30.09 in 10.0 mi SE 10.4 mph - N/A   Overcast
11:55 AM 62.6 °F 59.0 °F 88% 30.08 in 10.0 mi SE 8.1 mph - N/A   Overcast
12:15 PM 62.6 °F 59.0 °F 88% 30.07 in 10.0 mi SE 8.1 mph - N/A   Overcast
12:35 PM 62.6 °F 59.0 °F 88% 30.06 in 10.0 mi SE 8.1 mph - N/A   Overcast
12:55 PM 62.6 °F 59.0 °F 88% 30.05 in 10.0 mi SE 8.1 mph - N/A   Overcast
1:15 PM 64.4 °F 59.0 °F 83% 30.04 in 10.0 mi SSE 8.1 mph - N/A   Overcast
1:35 PM 64.4 °F 59.0 °F 83% 30.03 in 10.0 mi SE 9.2 mph - N/A   Overcast
1:55 PM 64.4 °F 59.0 °F 83% 30.04 in 10.0 mi SSE 8.1 mph - N/A   Overcast
2:15 PM 64.4 °F 59.0 °F 83% 30.03 in 10.0 mi SE 4.6 mph - N/A   Overcast
2:35 PM 64.4 °F 60.8 °F 88% 30.02 in 5.0 mi SE 5.8 mph - N/A   Overcast
2:55 PM 64.4 °F 60.8 °F 88% 30.02 in 7.0 mi ESE 5.8 mph - N/A   Overcast
3:15 PM 64.4 °F 60.8 °F 88% 30.02 in 4.0 mi East 5.8 mph - 0.02 in   Mostly Cloudy
3:35 PM 62.6 °F 60.8 °F 94% 30.01 in 5.0 mi East 5.8 mph - 0.04 in   Overcast
3:55 PM 62.6 °F 60.8 °F 94% 30.02 in 3.0 mi ESE 4.6 mph - 0.06 in   Overcast
4:15 PM 62.6 °F 60.8 °F 94% 30.01 in 1.2 mi ESE 5.8 mph - 0.04 in   Overcast
4:35 PM 62.6 °F 60.8 °F 94% 30.01 in 1.0 mi ESE 6.9 mph - 0.11 in   Overcast
4:55 PM 62.6 °F 60.8 °F 94% 30.01 in 2.0 mi ESE 4.6 mph - 0.14 in   Overcast
5:15 PM 62.6 °F 60.8 °F 94% 30.01 in 1.5 mi ESE 8.1 mph - 0.07 in   Overcast
5:35 PM 62.6 °F 60.8 °F 94% 30.01 in 1.5 mi ESE 9.2 mph - 0.12 in   Overcast
5:55 PM 62.6 °F 60.8 °F 94% 30.01 in 1.5 mi SE 6.9 mph - 0.16 in   Overcast
6:15 PM 62.6 °F 60.8 °F 94% 30.01 in 1.0 mi ESE 6.9 mph - 0.06 in   Overcast
6:35 PM 62.6 °F 60.8 °F 94% 30.02 in 1.2 mi ESE 6.9 mph - 0.14 in   Overcast
6:55 PM 62.6 °F 60.8 °F 94% 30.02 in 1.0 mi ESE 5.8 mph - 0.24 in   Overcast
7:15 PM 62.6 °F 60.8 °F 94% 30.02 in 1.2 mi Calm Calm - 0.03 in   Overcast
7:35 PM 62.6 °F 60.8 °F 94% 30.01 in 1.0 mi Calm Calm - 0.07 in   Overcast
7:55 PM 62.6 °F 60.8 °F 94% 30.01 in 1.0 mi Calm Calm - 0.11 in   Overcast
8:15 PM 62.6 °F 60.8 °F 94% 30.01 in 2.0 mi Calm Calm - 0.01 in   Overcast
8:35 PM 62.6 °F 62.6 °F 100% 30.00 in 2.0 mi SE 9.2 mph - 0.02 in   Overcast
8:55 PM 64.4 °F 62.6 °F 94% 30.00 in 7.0 mi SE 8.1 mph - 0.02 in   Mostly Cloudy
9:15 PM 64.4 °F 62.6 °F 94% 30.00 in 3.0 mi SE 9.2 mph - 0.01 in   Overcast
9:35 PM 64.4 °F 62.6 °F 94% 30.01 in 1.8 mi SE 8.1 mph - 0.04 in   Overcast
9:55 PM 64.4 °F 62.6 °F 94% 30.01 in 1.5 mi South 8.1 mph - 0.10 in   Overcast
10:15 PM 64.4 °F 62.6 °F 94% 30.01 in 1.0 mi SSE 10.4 mph - 0.08 in   Overcast
10:35 PM 64.4 °F 62.6 °F 94% 30.01 in 1.8 mi South 5.8 mph - 0.13 in   Overcast
10:55 PM 64.4 °F 62.6 °F 94% 30.00 in 1.2 mi SSW 3.5 mph - 0.21 in   Overcast
11:15 PM 64.4 °F 62.6 °F 94% 30.00 in 2.0 mi SSW 4.6 mph - 0.03 in   Overcast
11:35 PM 64.4 °F 62.6 °F 94% 30.00 in 0.5 mi SSW 8.1 mph - 0.21 in   Overcast
11:55 PM 64.4 °F 62.6 °F 94% 29.99 in 7.0 mi South 6.9 mph - 0.21 in   Overcast